Flag for Gibraltar Weather past 2 weeks in Gibraltar, Gibraltar

Now
72 °F

Partly sunny.


Feels Like: 72 °F
Forecast: 69 / 74 °F
Wind: 10 mph from East

Location: Gibraltar Airport

Current Time: Sep 30, 2014 at 6:59:35 PM

Latest Report: Sep 30, 2014 at 5:50 PM


Visibility: N/A

Pressure: 30.09 "Hg

Humidity: 78%

Dew point: 64 °F

Location of GibraltarLocation

Historic Weather in Gibraltar — Graph

°F

Gibraltar temperature yesterday

Maximum temperature yesterday: 73 °F (at 5:50 PM)
Minimum temperature yesterday: 66 °F (at 1:50 AM)
Average temperature yesterday: 69 °F

Past Weeks' High & Low Weather Summary

 TemperatureHumidityPressure
High82 °F (Sep 15, 5:50 PM)100% (Sep 18, 7:50 AM)30.18 "Hg (Sep 18, 7:50 AM)
Low64 °F (Sep 23, 7:50 AM)25% (Sep 15, 5:50 PM)29.80 "Hg (Sep 16, 4:50 AM)
Average71 °F76%30.00 "Hg
* Reported Sep 15 5:50 PM — Sep 30 5:50 PM, Gibraltar, Weather by CustomWeather, © 2014

Note: Actual official high and low records may vary slightly from our data, if they occured in-between our weather recording intervals... More about our weather records

Advertising

Gibraltar weather history for previous 24 hours

 ConditionsComfort  
Time TempWeatherWind HumidityBarometerVisibility
5:50 PM
Sep 30
72 °FPartly sunny.10 mph78%30.09 "HgN/A
4:50 PM72 °FPartly sunny.12 mph78%30.09 "HgN/A
3:50 PM72 °FPartly sunny.15 mph78%30.09 "HgN/A
2:50 PM72 °FPartly sunny.14 mph78%30.12 "HgN/A
1:50 PM72 °FScattered clouds.10 mph78%30.15 "HgN/A
12:58 PM72 °FPartly sunny.10 mph78%30.15 "HgN/A
11:50 AM70 °FPartly sunny.10 mph83%30.15 "HgN/A
10:50 AM70 °FBroken clouds.7 mph88%30.15 "HgN/A
9:50 AM68 °FScattered clouds.9 mph94%30.15 "Hg6 mi
8:50 AM68 °FPartly cloudy.8 mph94%30.15 "Hg5 mi
7:50 AM68 °FPartly cloudy.7 mph88%30.12 "Hg5 mi
6:50 AM68 °FPassing clouds.5 mph94%30.12 "Hg5 mi
5:50 AM68 °FPassing clouds.7 mph94%30.12 "Hg5 mi
4:50 AM68 °FLow clouds.7 mph94%30.12 "Hg5 mi
3:50 AM68 °FLow clouds.5 mph94%30.15 "Hg3 mi
2:50 AM68 °FLow clouds.7 mph94%30.15 "Hg3 mi
1:50 AM68 °FLow clouds.8 mph94%30.18 "Hg4 mi
12:50 AM70 °FLow clouds.3 mph88%30.18 "Hg4 mi
11:50 PM
Sep 29
70 °FLow clouds.3 mph94%30.18 "Hg4 mi
10:50 PM70 °FPassing clouds.3 mph94%30.18 "Hg4 mi
9:50 PM70 °FPassing clouds.5 mph94%30.18 "Hg4 mi
8:50 PM70 °FSleet. Scattered clouds.5 mph94%30.15 "Hg6 mi
7:50 PM70 °FHaze.7 mph88%30.15 "Hg5 mi
6:50 PM73 °FScattered clouds.7 mph74%30.12 "Hg5 mi
Weather by CustomWeather, © 2014

See weather overviewHow to use our weather pages